GW3852 Weather Reports


time (UTC)temp
C
wind
direction
speed
KPH
gust
KPH
rain 1hr
cm
rain 24hr
cm
rain mn
cm
humidity
%
barometer
mb
20260504192003 25 182 6.4 12.9 0.00 0.00 0.00 40 1015.5
20260504191505 24 269 0.0 11.3 0.00 0.00 0.00 40 1015.6
20260504191006 24 211 4.8 11.3 0.00 0.00 0.00 38 1015.8
20260504190504 24 256 4.8 16.1 0.00 0.00 0.00 39 1015.9
20260504190006 24 234 9.7 16.1 0.00 0.00 0.00 38 1015.9
20260504185503 24 196 4.8 11.3 0.00 0.00 0.00 41 1015.9
20260504185003 24 258 3.2 14.5 0.00 0.00 0.00 42 1016.0
20260504184504 24 244 8.0 14.5 0.00 0.00 0.00 40 1016.1
20260504184002 24 273 6.4 12.9 0.00 0.00 0.00 39 1016.1
20260504183502 24 262 4.8 12.9 0.00 0.00 0.00 41 1016.2
20260504183008 23 288 8.0 11.3 0.00 0.00 0.00 39 1016.3
20260504182503 23 42 4.8 14.5 0.00 0.00 0.00 38 1016.2
20260504182003 23 265 9.7 14.5 0.00 0.00 0.00 39 1016.4
20260504181508 23 16 6.4 11.3 0.00 0.00 0.00 35 1016.4
20260504181003 23 57 0.0 6.4 0.00 0.00 0.00 38 1016.4
20260504180503 24 168 1.6 9.7 0.00 0.00 0.00 35 1016.7
20260504180005 24 296 4.8 9.7 0.00 0.00 0.00 37 1016.8
20260504175504 24 209 4.8 9.7 0.00 0.00 0.00 40 1016.8
20260504175003 23 258 3.2 11.3 0.00 0.00 0.00 42 1016.8
20260504174508 23 126 3.2 11.3 0.00 0.00 0.00 44 1016.8
20260504174003 23 196 4.8 11.3 0.00 0.00 0.00 39 1017.0
20260504173503 23 219 6.4 9.7 0.00 0.00 0.00 39 1017.0
20260504173011 23 10 1.6 11.3 0.00 0.00 0.00 43 1017.0
20260504172502 22 275 4.8 11.3 0.00 0.00 0.00 44 1017.1
20260504172002 22 284 3.2 9.7 0.00 0.00 0.00 41 1017.1
20260504171513 22 189 4.8 9.7 0.00 0.00 0.00 43 1017.1
20260504171006 22 239 3.2 6.4 0.00 0.00 0.00 41 1017.1
20260504170506 22 230 3.2 12.9 0.00 0.00 0.00 42 1017.2
20260504151005 20 252 6.4 11.3 0.00 0.00 0.00 46 1018.2
20260504150504 20 284 3.2 11.3 0.00 0.00 0.00 50 1018.2
20260504141009 18 246 4.8 8.0 0.00 0.00 0.00 52 1018.5
20260504140504 17 220 4.8 12.9 0.00 0.00 0.00 52 1018.5
20260504130511 11 206 0.0 3.2 0.00 0.00 0.00 90 1018.3
20260504110511 5 336 0.0 1.6 0.00 0.00 0.00 90 1018.1
20260504100506 5 336 0.0 0.0 0.00 0.00 0.00 89 1017.9
20260504081528 5 336 0.0 0.0 0.00 0.00 0.00 89 1017.7
20260504081009 5 336 0.0 0.0 0.00 0.00 0.00 89 1017.7
20260504080509 5 336 0.0 0.0 0.00 0.00 0.00 89 1017.8
20260504050513 7 336 0.0 1.6 0.00 0.00 0.00 86 1018.7
20260504050014 7 336 0.0 0.0 0.00 0.00 0.00 86 1018.7
20260504045503 7 336 0.0 0.0 0.00 0.00 0.00 85 1018.7
20260504045009 7 336 0.0 0.0 0.00 0.00 0.00 85 1018.8
20260504044525 7 336 0.0 3.2 0.00 0.00 0.00 85 1018.8
20260504044011 7 336 0.0 3.2 0.00 0.00 0.00 85 1018.8
20260504043507 7 336 0.0 0.0 0.00 0.00 0.00 85 1018.7
20260504043024 7 336 0.0 0.0 0.00 0.00 0.00 85 1018.8
20260504042509 7 336 0.0 0.0 0.00 0.00 0.00 84 1018.9
20260504042007 8 336 0.0 0.0 0.00 0.00 0.00 84 1018.9
20260504041521 8 336 0.0 0.0 0.00 0.00 0.00 84 1018.9
20260504041006 8 336 0.0 0.0 0.00 0.00 0.00 84 1019.0
20260504040507 8 336 0.0 0.0 0.00 0.00 0.00 84 1019.2
20260504040035 8 336 0.0 0.0 0.00 0.00 0.00 84 1019.1
20260504035510 8 336 0.0 0.0 0.00 0.00 0.00 84 1019.0
20260504035010 8 336 0.0 0.0 0.00 0.00 0.00 83 1019.0
20260504034514 8 336 0.0 0.0 0.00 0.00 0.00 83 1019.1
20260504034007 8 336 0.0 0.0 0.00 0.00 0.00 82 1019.0
20260504033507 8 336 0.0 0.0 0.00 0.00 0.00 82 1019.0
20260504033022 8 336 0.0 0.0 0.00 0.00 0.00 81 1019.1
20260504032507 8 336 0.0 0.0 0.00 0.00 0.00 81 1019.0
20260504032013 9 336 0.0 0.0 0.00 0.00 0.00 81 1019.1
20260504031516 9 336 0.0 0.0 0.00 0.00 0.00 80 1019.0
20260504031009 9 336 0.0 0.0 0.00 0.00 0.00 80 1019.0
20260504030507 9 336 0.0 0.0 0.00 0.00 0.00 79 1018.9
20260504030025 9 336 0.0 0.0 0.00 0.00 0.00 79 1019.0
20260504025508 10 336 0.0 0.0 0.00 0.00 0.00 78 1018.9
20260504025009 10 336 0.0 0.0 0.00 0.00 0.00 77 1018.9
20260504024524 10 336 0.0 0.0 0.00 0.00 0.00 77 1018.9
20260504024013 10 336 0.0 0.0 0.00 0.00 0.00 77 1018.9
20260504023511 10 336 0.0 0.0 0.00 0.00 0.00 76 1018.8
20260504023020 10 336 0.0 0.0 0.00 0.00 0.00 76 1018.8
20260504022509 10 336 0.0 0.0 0.00 0.00 0.00 76 1018.6
20260504022011 10 336 0.0 0.0 0.00 0.00 0.00 75 1018.7
20260504021520 11 336 0.0 0.0 0.00 0.00 0.00 75 1018.6
20260504021008 11 336 0.0 0.0 0.00 0.00 0.00 74 1018.5
20260504020509 11 336 0.0 1.6 0.00 0.00 0.00 74 1018.5
20260504020023 11 336 0.0 3.2 0.00 0.00 0.00 74 1018.4
20260504015511 11 336 0.0 3.2 0.00 0.00 0.00 74 1018.3
20260504015013 11 336 0.0 0.0 0.00 0.00 0.00 71 1018.2
20260504014525 12 336 0.0 1.6 0.00 0.00 0.00 70 1018.2
20260504014008 12 336 0.0 3.2 0.00 0.00 0.00 70 1018.2
20260504013509 12 336 0.0 3.2 0.00 0.00 0.00 69 1018.2
20260504013021 12 336 0.0 3.2 0.00 0.00 0.00 65 1018.2
20260504012510 13 336 0.0 3.2 0.00 0.00 0.00 65 1018.1
20260504012008 13 336 0.0 1.6 0.00 0.00 0.00 63 1018.0
20260504011525 13 336 0.0 0.0 0.00 0.00 0.00 61 1018.0
20260504011010 14 336 0.0 1.6 0.00 0.00 0.00 61 1018.0
20260504010507 14 336 0.0 1.6 0.00 0.00 0.00 59 1017.8
20260504010028 15 336 0.0 0.0 0.00 0.00 0.00 58 1017.8
20260504005505 15 336 0.0 0.0 0.00 0.00 0.00 58 1017.7
20260504005003 15 336 0.0 0.0 0.00 0.00 0.00 56 1017.7
20260504004521 15 336 0.0 0.0 0.00 0.00 0.00 55 1017.6
20260504004006 15 336 0.0 3.2 0.00 0.00 0.00 54 1017.6
20260504003510 16 336 0.0 3.2 0.00 0.00 0.00 54 1017.6
20260504003008 16 336 0.0 0.0 0.00 0.00 0.00 53 1017.4
20260504002503 16 336 0.0 1.6 0.00 0.00 0.00 52 1017.5
20260504002006 16 336 0.0 1.6 0.00 0.00 0.00 49 1017.4
20260504001507 17 336 0.0 3.2 0.00 0.00 0.00 48 1017.5
20260504001003 17 336 0.0 3.2 0.00 0.00 0.00 46 1017.5
20260504000505 17 336 0.0 3.2 0.00 0.00 0.00 47 1017.5
20260504000005 17 336 0.0 3.2 0.00 0.00 0.00 46 1017.4
20260503235503 17 336 0.0 3.2 0.00 0.00 0.00 44 1017.3
20260503235005 17 336 0.0 3.2 0.00 0.00 0.00 42 1017.4
20260503234505 18 336 0.0 4.8 0.00 0.00 0.00 42 1017.4
20260503234006 18 336 1.6 8.0 0.00 0.00 0.00 41 1017.4
20260503233502 18 311 1.6 8.0 0.00 0.00 0.00 41 1017.4
20260503233021 18 305 1.6 8.0 0.00 0.00 0.00 40 1017.4
20260503232507 18 332 3.2 8.0 0.00 0.00 0.00 39 1017.5
20260503232005 18 336 0.0 8.0 0.00 0.00 0.00 42 1017.5
20260503231505 18 24 3.2 9.7 0.00 0.00 0.00 40 1017.5
20260503231003 18 262 4.8 9.7 0.00 0.00 0.00 38 1017.4
20260503230504 18 249 4.8 9.7 0.00 0.00 0.00 40 1017.5
20260503230005 18 326 4.8 11.3 0.00 0.00 0.00 38 1017.5
20260503225503 18 298 1.6 12.9 0.00 0.00 0.00 37 1017.5
20260503225007 18 331 6.4 12.9 0.00 0.00 0.00 36 1017.6
20260503224515 18 266 3.2 9.7 0.00 0.00 0.00 36 1017.6
20260503224003 19 23 1.6 12.9 0.00 0.00 0.00 33 1017.6
20260503223503 19 328 3.2 14.5 0.00 0.00 0.00 34 1017.6
20260503223022 19 331 8.0 14.5 0.00 0.00 0.00 34 1017.6
20260503222503 20 334 6.4 14.5 0.00 0.00 0.00 33 1017.6
20260503222006 20 23 8.0 14.5 0.00 0.00 0.00 32 1017.7
20260503221504 20 291 3.2 12.9 0.00 0.00 0.00 32 1017.6
20260503221006 20 316 4.8 14.5 0.00 0.00 0.00 32 1017.6
20260503220504 20 315 4.8 14.5 0.00 0.00 0.00 34 1017.6
20260503220005 20 261 4.8 14.5 0.00 0.00 0.00 34 1017.6
20260503215506 20 343 6.4 14.5 0.00 0.00 0.00 34 1017.6
20260503215002 20 322 8.0 14.5 0.00 0.00 0.00 33 1017.6
20260503214513 20 340 4.8 14.5 0.00 0.00 0.00 34 1017.8
20260503214003 20 360 4.8 14.5 0.00 0.00 0.00 34 1017.8
20260503213502 20 319 8.0 14.5 0.00 0.00 0.00 34 1017.7
20260503213008 20 351 4.8 12.9 0.00 0.00 0.00 36 1017.8
20260503212503 20 22 6.4 12.9 0.00 0.00 0.00 33 1017.9
20260503212008 20 335 6.4 17.7 0.00 0.00 0.00 33 1017.9
20260503211518 20 360 8.0 17.7 0.00 0.00 0.00 33 1017.9
20260503211011 20 262 3.2 17.7 0.00 0.00 0.00 34 1017.9
20260503210510 20 344 8.0 17.7 0.00 0.00 0.00 35 1018.0
20260503210016 20 314 8.0 14.5 0.00 0.00 0.00 35 1017.9
20260503205505 20 294 3.2 14.5 0.00 0.00 0.00 36 1018.0
20260503205006 20 326 6.4 12.9 0.00 0.00 0.00 36 1018.0
20260503204519 20 227 3.2 12.9 0.00 0.00 0.00 35 1018.1
20260503204016 20 322 6.4 16.1 0.00 0.00 0.00 35 1018.1
20260503203505 20 310 4.8 17.7 0.00 0.00 0.00 39 1018.2
20260503203014 20 300 8.0 17.7 0.00 0.00 0.00 36 1018.3
20260503202509 20 327 6.4 16.1 0.00 0.00 0.00 37 1018.4
20260503202007 20 27 4.8 12.9 0.00 0.00 0.00 42 1018.4
20260503201514 19 351 3.2 20.9 0.00 0.00 0.00 37 1018.5
20260503201006 19 299 4.8 20.9 0.00 0.00 0.00 38 1018.5
20260503200507 19 306 12.9 20.9 0.00 0.00 0.00 35 1018.7
20260503200010 19 346 8.0 17.7 0.00 0.00 0.00 37 1018.8
20260503195506 20 39 6.4 16.1 0.00 0.00 0.00 37 1018.8
20260503195003 20 329 1.6 12.9 0.00 0.00 0.00 36 1018.9
20260503194508 20 264 8.0 17.7 0.00 0.00 0.00 36 1019.1
20260503194010 20 302 4.8 17.7 0.00 0.00 0.00 32 1019.2
20260503193510 19 259 4.8 17.7 0.00 0.00 0.00 35 1019.2
20260503193037 19 14 3.2 17.7 0.00 0.00 0.00 36 1019.3
20260503192506 19 329 9.7 17.7 0.00 0.00 0.00 37 1019.3